Year,Month,Day,Hour,Minute,Value (Times are PST for insolation in W/m^2)
2021,10,07,00,00,0.00
2021,10,07,00,01,0.00
2021,10,07,00,02,0.00
2021,10,07,00,03,0.00
2021,10,07,00,04,0.00
2021,10,07,00,05,0.00
2021,10,07,00,06,0.00
2021,10,07,00,07,0.00
2021,10,07,00,08,0.00
2021,10,07,00,09,0.00
2021,10,07,00,10,0.00
2021,10,07,00,11,0.00
2021,10,07,00,12,0.00
2021,10,07,00,13,0.00
2021,10,07,00,14,0.00
2021,10,07,00,15,0.00
2021,10,07,00,16,0.00
2021,10,07,00,17,0.00
2021,10,07,00,18,0.00
2021,10,07,00,19,0.00
2021,10,07,00,20,0.00
2021,10,07,00,21,0.00
2021,10,07,00,22,0.00
2021,10,07,00,23,0.00
2021,10,07,00,24,0.00
2021,10,07,00,25,0.00
2021,10,07,00,26,0.00
2021,10,07,00,27,0.00
2021,10,07,00,28,0.00
2021,10,07,00,29,0.00
2021,10,07,00,30,0.00
2021,10,07,00,31,0.00
2021,10,07,00,32,0.00
2021,10,07,00,33,0.00
2021,10,07,00,34,0.00
2021,10,07,00,35,0.00
2021,10,07,00,36,0.00
2021,10,07,00,37,0.00
2021,10,07,00,38,0.00
2021,10,07,00,39,0.00
2021,10,07,00,40,0.00
2021,10,07,00,41,0.00
2021,10,07,00,42,0.00
2021,10,07,00,43,0.00
2021,10,07,00,44,0.00
2021,10,07,00,45,0.00
2021,10,07,00,46,0.00
2021,10,07,00,47,0.00
2021,10,07,00,48,0.00
2021,10,07,00,49,0.00
2021,10,07,00,50,0.00
2021,10,07,00,51,0.00
2021,10,07,00,52,0.00
2021,10,07,00,53,0.00
2021,10,07,00,54,0.00
2021,10,07,00,55,0.00
2021,10,07,00,56,0.00
2021,10,07,00,57,0.00
2021,10,07,00,58,0.00
2021,10,07,00,59,0.00
2021,10,07,01,00,0.00
2021,10,07,01,01,0.00
2021,10,07,01,02,0.00
2021,10,07,01,03,0.00
2021,10,07,01,04,0.00
2021,10,07,01,05,0.00
2021,10,07,01,06,0.00
2021,10,07,01,07,0.00
2021,10,07,01,08,0.00
2021,10,07,01,09,0.00
2021,10,07,01,10,0.00
2021,10,07,01,11,0.00
2021,10,07,01,12,0.00
2021,10,07,01,13,0.00
2021,10,07,01,14,0.00
2021,10,07,01,15,0.00
2021,10,07,01,16,0.00
2021,10,07,01,17,0.00
2021,10,07,01,18,0.00
2021,10,07,01,19,0.00
2021,10,07,01,20,0.00
2021,10,07,01,21,0.00
2021,10,07,01,22,0.00
2021,10,07,01,23,0.00
2021,10,07,01,24,0.00
2021,10,07,01,25,0.00
2021,10,07,01,26,0.00
2021,10,07,01,27,0.00
2021,10,07,01,28,0.00
2021,10,07,01,29,0.00
2021,10,07,01,30,0.00
2021,10,07,01,31,0.00
2021,10,07,01,32,0.00
2021,10,07,01,33,0.00
2021,10,07,01,34,0.00
2021,10,07,01,35,0.00
2021,10,07,01,36,0.00
2021,10,07,01,37,0.00
2021,10,07,01,38,0.00
2021,10,07,01,39,0.00
2021,10,07,01,40,0.00
2021,10,07,01,41,0.00
2021,10,07,01,42,0.00
2021,10,07,01,43,0.00
2021,10,07,01,44,0.00
2021,10,07,01,45,0.00
2021,10,07,01,46,0.00
2021,10,07,01,47,0.00
2021,10,07,01,48,0.00
2021,10,07,01,49,0.00
2021,10,07,01,50,0.00
2021,10,07,01,51,0.00
2021,10,07,01,52,0.00
2021,10,07,01,53,0.00
2021,10,07,01,54,0.00
2021,10,07,01,55,0.00
2021,10,07,01,56,0.00
2021,10,07,01,57,0.00
2021,10,07,01,58,0.00
2021,10,07,01,59,0.00
2021,10,07,02,00,0.00
2021,10,07,02,01,0.00
2021,10,07,02,02,0.00
2021,10,07,02,03,0.00
2021,10,07,02,04,0.00
2021,10,07,02,05,0.00
2021,10,07,02,06,0.00
2021,10,07,02,07,0.00
2021,10,07,02,08,0.00
2021,10,07,02,09,0.00
2021,10,07,02,10,0.00
2021,10,07,02,11,0.00
2021,10,07,02,12,0.00
2021,10,07,02,13,0.00
2021,10,07,02,14,0.00
2021,10,07,02,15,0.00
2021,10,07,02,16,0.00
2021,10,07,02,17,0.00
2021,10,07,02,18,0.00
2021,10,07,02,19,0.00
2021,10,07,02,20,0.00
2021,10,07,02,21,0.00
2021,10,07,02,22,0.00
2021,10,07,02,23,0.00
2021,10,07,02,24,0.00
2021,10,07,02,25,0.00
2021,10,07,02,26,0.00
2021,10,07,02,27,0.00
2021,10,07,02,28,0.00
2021,10,07,02,29,0.00
2021,10,07,02,30,0.00
2021,10,07,02,31,0.00
2021,10,07,02,32,0.00
2021,10,07,02,33,0.00
2021,10,07,02,34,0.00
2021,10,07,02,35,0.00
2021,10,07,02,36,0.00
2021,10,07,02,37,0.00
2021,10,07,02,38,0.00
2021,10,07,02,39,0.00
2021,10,07,02,40,0.00
2021,10,07,02,41,0.00
2021,10,07,02,42,0.00
2021,10,07,02,43,0.00
2021,10,07,02,44,0.00
2021,10,07,02,45,0.00
2021,10,07,02,46,0.00
2021,10,07,02,47,0.00
2021,10,07,02,48,0.00
2021,10,07,02,49,0.00
2021,10,07,02,50,0.00
2021,10,07,02,51,0.00
2021,10,07,02,52,0.00
2021,10,07,02,53,0.00
2021,10,07,02,54,0.00
2021,10,07,02,55,0.00
2021,10,07,02,56,0.00
2021,10,07,02,57,0.00
2021,10,07,02,58,0.00
2021,10,07,02,59,0.00
2021,10,07,03,00,0.00
2021,10,07,03,01,0.00
2021,10,07,03,02,0.00
2021,10,07,03,03,0.00
2021,10,07,03,04,0.00
2021,10,07,03,05,0.00
2021,10,07,03,06,0.00
2021,10,07,03,07,0.00
2021,10,07,03,08,0.00
2021,10,07,03,09,0.00
2021,10,07,03,10,0.00
2021,10,07,03,11,0.00
2021,10,07,03,12,0.00
2021,10,07,03,13,0.00
2021,10,07,03,14,0.00
2021,10,07,03,15,0.00
2021,10,07,03,16,0.00
2021,10,07,03,17,0.00
2021,10,07,03,18,0.00
2021,10,07,03,19,0.00
2021,10,07,03,20,0.00
2021,10,07,03,21,0.00
2021,10,07,03,22,0.00
2021,10,07,03,23,0.00
2021,10,07,03,24,0.00
2021,10,07,03,25,0.00
2021,10,07,03,26,0.00
2021,10,07,03,27,0.00
2021,10,07,03,28,0.00
2021,10,07,03,29,0.00
2021,10,07,03,30,0.00
2021,10,07,03,31,0.00
2021,10,07,03,32,0.00
2021,10,07,03,33,0.00
2021,10,07,03,34,0.00
2021,10,07,03,35,0.00
2021,10,07,03,36,0.00
2021,10,07,03,37,0.00
2021,10,07,03,38,0.00
2021,10,07,03,39,0.00
2021,10,07,03,40,0.00
2021,10,07,03,41,0.00
2021,10,07,03,42,0.00
2021,10,07,03,43,0.00
2021,10,07,03,44,0.00
2021,10,07,03,45,0.00
2021,10,07,03,46,0.00
2021,10,07,03,47,0.00
2021,10,07,03,48,0.00
2021,10,07,03,49,0.00
2021,10,07,03,50,0.00
2021,10,07,03,51,0.00
2021,10,07,03,52,0.00
2021,10,07,03,53,0.00
2021,10,07,03,54,0.00
2021,10,07,03,55,0.00
2021,10,07,03,56,0.00
2021,10,07,03,57,0.00
2021,10,07,03,58,0.00
2021,10,07,03,59,0.00
2021,10,07,04,00,0.00
2021,10,07,04,01,0.00
2021,10,07,04,02,0.00
2021,10,07,04,03,0.00
2021,10,07,04,04,0.00
2021,10,07,04,05,0.00
2021,10,07,04,06,0.00
2021,10,07,04,07,0.00
2021,10,07,04,08,0.00
2021,10,07,04,09,0.00
2021,10,07,04,10,0.00
2021,10,07,04,11,0.00
2021,10,07,04,12,0.00
2021,10,07,04,13,0.00
2021,10,07,04,14,0.00
2021,10,07,04,15,0.00
2021,10,07,04,16,0.00
2021,10,07,04,17,0.00
2021,10,07,04,18,0.00
2021,10,07,04,19,0.00
2021,10,07,04,20,0.00
2021,10,07,04,21,0.00
2021,10,07,04,22,0.00
2021,10,07,04,23,0.00
2021,10,07,04,24,0.00
2021,10,07,04,25,0.00
2021,10,07,04,26,0.00
2021,10,07,04,27,0.00
2021,10,07,04,28,0.00
2021,10,07,04,29,0.00
2021,10,07,04,30,0.00
2021,10,07,04,31,0.00
2021,10,07,04,32,0.00
2021,10,07,04,33,0.00
2021,10,07,04,34,0.00
2021,10,07,04,35,0.00
2021,10,07,04,36,0.00
2021,10,07,04,37,0.00
2021,10,07,04,38,0.00
2021,10,07,04,39,0.00
2021,10,07,04,40,0.00
2021,10,07,04,41,0.00
2021,10,07,04,42,0.00
2021,10,07,04,43,0.00
2021,10,07,04,44,0.00
2021,10,07,04,45,0.00
2021,10,07,04,46,0.00
2021,10,07,04,47,0.00
2021,10,07,04,48,0.00
2021,10,07,04,49,0.00
2021,10,07,04,50,0.00
2021,10,07,04,51,0.00
2021,10,07,04,52,0.00
2021,10,07,04,53,0.00
2021,10,07,04,54,0.00
2021,10,07,04,55,0.00
2021,10,07,04,56,0.00
2021,10,07,04,57,0.00
2021,10,07,04,58,0.00
2021,10,07,04,59,0.00
2021,10,07,05,00,0.00
2021,10,07,05,01,0.00
2021,10,07,05,02,0.00
2021,10,07,05,03,0.00
2021,10,07,05,04,0.00
2021,10,07,05,05,0.00
2021,10,07,05,06,0.00
2021,10,07,05,07,0.00
2021,10,07,05,08,0.00
2021,10,07,05,09,0.00
2021,10,07,05,10,0.00
2021,10,07,05,11,0.00
2021,10,07,05,12,0.00
2021,10,07,05,13,0.00
2021,10,07,05,14,0.00
2021,10,07,05,15,0.00
2021,10,07,05,16,0.00
2021,10,07,05,17,0.00
2021,10,07,05,18,0.00
2021,10,07,05,19,0.00
2021,10,07,05,20,0.00
2021,10,07,05,21,0.00
2021,10,07,05,22,0.00
2021,10,07,05,23,0.00
2021,10,07,05,24,0.00
2021,10,07,05,25,0.00
2021,10,07,05,26,0.00
2021,10,07,05,27,0.00
2021,10,07,05,28,0.00
2021,10,07,05,29,0.00
2021,10,07,05,30,0.00
2021,10,07,05,31,0.00
2021,10,07,05,32,0.00
2021,10,07,05,33,0.00
2021,10,07,05,34,0.00
2021,10,07,05,35,0.00
2021,10,07,05,36,0.00
2021,10,07,05,37,0.00
2021,10,07,05,38,0.00
2021,10,07,05,39,0.00
2021,10,07,05,40,0.00
2021,10,07,05,41,0.00
2021,10,07,05,42,0.00
2021,10,07,05,43,0.00
2021,10,07,05,44,0.00
2021,10,07,05,45,0.00
2021,10,07,05,46,0.00
2021,10,07,05,47,0.00
2021,10,07,05,48,0.00
2021,10,07,05,49,0.00
2021,10,07,05,50,0.00
2021,10,07,05,51,0.00
2021,10,07,05,52,0.00
2021,10,07,05,53,0.00
2021,10,07,05,54,0.00
2021,10,07,05,55,0.00
2021,10,07,05,56,0.00
2021,10,07,05,57,0.00
2021,10,07,05,58,0.00
2021,10,07,05,59,0.00
2021,10,07,06,00,0.00
2021,10,07,06,01,0.00
2021,10,07,06,02,0.00
2021,10,07,06,03,0.00
2021,10,07,06,04,0.00
2021,10,07,06,05,0.00
2021,10,07,06,06,0.00
2021,10,07,06,07,0.00
2021,10,07,06,08,0.00
2021,10,07,06,09,0.00
2021,10,07,06,10,0.00
2021,10,07,06,11,0.00
2021,10,07,06,12,0.00
2021,10,07,06,13,0.00
2021,10,07,06,14,0.00
2021,10,07,06,15,0.00
2021,10,07,06,16,0.00
2021,10,07,06,17,0.00
2021,10,07,06,18,0.00
2021,10,07,06,19,0.00
2021,10,07,06,20,0.00
2021,10,07,06,21,0.00
2021,10,07,06,22,0.00
2021,10,07,06,23,0.00
2021,10,07,06,24,0.00
2021,10,07,06,25,0.00
2021,10,07,06,26,0.00
2021,10,07,06,27,0.00
2021,10,07,06,28,0.00
2021,10,07,06,29,0.00
2021,10,07,06,30,0.00
2021,10,07,06,31,0.00
2021,10,07,06,32,0.00
2021,10,07,06,33,0.00
2021,10,07,06,34,0.00
2021,10,07,06,35,0.00
2021,10,07,06,36,0.00
2021,10,07,06,37,0.00
2021,10,07,06,38,0.00
2021,10,07,06,39,0.00
2021,10,07,06,40,0.00
2021,10,07,06,41,0.00
2021,10,07,06,42,0.00
2021,10,07,06,43,0.00
2021,10,07,06,44,0.00
2021,10,07,06,45,0.00
2021,10,07,06,46,0.00
2021,10,07,06,47,0.00
2021,10,07,06,48,0.00
2021,10,07,06,49,0.00
2021,10,07,06,50,0.00
2021,10,07,06,51,0.00
2021,10,07,06,52,0.00
2021,10,07,06,53,0.00
2021,10,07,06,54,0.00
2021,10,07,06,55,0.00
2021,10,07,06,56,0.00
2021,10,07,06,57,0.00
2021,10,07,06,58,0.00
2021,10,07,06,59,0.00
2021,10,07,07,00,0.00
2021,10,07,07,01,0.00
2021,10,07,07,02,0.00
2021,10,07,07,03,0.00
2021,10,07,07,04,0.00
2021,10,07,07,05,0.00
2021,10,07,07,06,0.00
2021,10,07,07,07,0.00
2021,10,07,07,08,0.00
2021,10,07,07,09,0.00
2021,10,07,07,10,0.00
2021,10,07,07,11,0.00
2021,10,07,07,12,0.00
2021,10,07,07,13,0.00
2021,10,07,07,14,0.00
2021,10,07,07,15,0.00
2021,10,07,07,16,0.00
2021,10,07,07,17,0.00
2021,10,07,07,18,0.00
2021,10,07,07,19,0.00
2021,10,07,07,20,0.00
2021,10,07,07,21,0.00
2021,10,07,07,22,0.00
2021,10,07,07,23,0.00
2021,10,07,07,24,0.00
2021,10,07,07,25,0.00
2021,10,07,07,26,0.00
2021,10,07,07,27,0.00
2021,10,07,07,28,0.00
2021,10,07,07,29,0.00
2021,10,07,07,30,0.00
2021,10,07,07,31,0.00
2021,10,07,07,32,0.00
2021,10,07,07,33,0.00
2021,10,07,07,34,1.10
2021,10,07,07,35,5.00
2021,10,07,07,36,5.00
2021,10,07,07,37,5.00
2021,10,07,07,38,5.00
2021,10,07,07,39,6.60
2021,10,07,07,40,7.00
2021,10,07,07,41,7.00
2021,10,07,07,42,7.60
2021,10,07,07,43,9.00
2021,10,07,07,44,9.00
2021,10,07,07,45,10.40
2021,10,07,07,46,11.00
2021,10,07,07,47,11.00
2021,10,07,07,48,11.20
2021,10,07,07,49,12.00
2021,10,07,07,50,12.00
2021,10,07,07,51,13.20
2021,10,07,07,52,14.00
2021,10,07,07,53,15.60
2021,10,07,07,54,16.10
2021,10,07,07,55,18.20
2021,10,07,07,56,19.00
2021,10,07,07,57,19.00
2021,10,07,07,58,20.10
2021,10,07,07,59,21.00
2021,10,07,08,00,21.00
2021,10,07,08,01,21.10
2021,10,07,08,02,23.40
2021,10,07,08,03,25.30
2021,10,07,08,04,26.90
2021,10,07,08,05,29.10
2021,10,07,08,06,31.40
2021,10,07,08,07,32.80
2021,10,07,08,08,35.10
2021,10,07,08,09,37.40
2021,10,07,08,10,39.00
2021,10,07,08,11,39.40
2021,10,07,08,12,41.10
2021,10,07,08,13,42.00
2021,10,07,08,14,43.70
2021,10,07,08,15,44.10
2021,10,07,08,16,46.20
2021,10,07,08,17,47.60
2021,10,07,08,18,49.00
2021,10,07,08,19,50.10
2021,10,07,08,20,52.40
2021,10,07,08,21,57.10
2021,10,07,08,22,61.90
2021,10,07,08,23,61.30
2021,10,07,08,24,58.60
2021,10,07,08,25,60.90
2021,10,07,08,26,62.00
2021,10,07,08,27,62.70
2021,10,07,08,28,63.00
2021,10,07,08,29,65.10
2021,10,07,08,30,67.50
2021,10,07,08,31,70.60
2021,10,07,08,32,72.90
2021,10,07,08,33,75.10
2021,10,07,08,34,76.00
2021,10,07,08,35,76.00
2021,10,07,08,36,76.00
2021,10,07,08,37,76.20
2021,10,07,08,38,76.70
2021,10,07,08,39,76.40
2021,10,07,08,40,77.00
2021,10,07,08,41,79.90
2021,10,07,08,42,82.60
2021,10,07,08,43,84.20
2021,10,07,08,44,89.20
2021,10,07,08,45,95.00
2021,10,07,08,46,94.10
2021,10,07,08,47,94.10
2021,10,07,08,48,95.00
2021,10,07,08,49,95.00
2021,10,07,08,50,93.10
2021,10,07,08,51,92.60
2021,10,07,08,52,92.30
2021,10,07,08,53,95.90
2021,10,07,08,54,97.00
2021,10,07,08,55,99.10
2021,10,07,08,56,101.70
2021,10,07,08,57,104.00
2021,10,07,08,58,105.40
2021,10,07,08,59,107.70
2021,10,07,09,00,110.90
2021,10,07,09,01,114.70
2021,10,07,09,02,120.80
2021,10,07,09,03,123.00
2021,10,07,09,04,129.80
2021,10,07,09,05,128.90
2021,10,07,09,06,124.40
2021,10,07,09,07,122.10
2021,10,07,09,08,120.40
2021,10,07,09,09,120.00
2021,10,07,09,10,118.30
2021,10,07,09,11,118.00
2021,10,07,09,12,118.00
2021,10,07,09,13,118.00
2021,10,07,09,14,118.90
2021,10,07,09,15,120.00
2021,10,07,09,16,118.60
2021,10,07,09,17,119.60
2021,10,07,09,18,119.90
2021,10,07,09,19,118.00
2021,10,07,09,20,118.00
2021,10,07,09,21,118.00
2021,10,07,09,22,118.00
2021,10,07,09,23,118.00
2021,10,07,09,24,119.60
2021,10,07,09,25,120.10
2021,10,07,09,26,121.40
2021,10,07,09,27,123.60
2021,10,07,09,28,125.00
2021,10,07,09,29,126.70
2021,10,07,09,30,129.40
2021,10,07,09,31,131.60
2021,10,07,09,32,133.90
2021,10,07,09,33,135.40
2021,10,07,09,34,137.60
2021,10,07,09,35,139.90
2021,10,07,09,36,141.60
2021,10,07,09,37,143.40
2021,10,07,09,38,145.70
2021,10,07,09,39,148.00
2021,10,07,09,40,149.40
2021,10,07,09,41,152.30
2021,10,07,09,42,155.40
2021,10,07,09,43,157.10
2021,10,07,09,44,159.40
2021,10,07,09,45,161.60
2021,10,07,09,46,163.00
2021,10,07,09,47,163.00
2021,10,07,09,48,163.00
2021,10,07,09,49,163.00
2021,10,07,09,50,163.00
2021,10,07,09,51,163.00
2021,10,07,09,52,170.40
2021,10,07,09,53,167.30
2021,10,07,09,54,169.60
2021,10,07,09,55,172.60
2021,10,07,09,56,174.00
2021,10,07,09,57,172.80
2021,10,07,09,58,169.90
2021,10,07,09,59,169.00
2021,10,07,10,00,196.70
2021,10,07,10,01,221.00
2021,10,07,10,02,221.00
2021,10,07,10,03,286.60
2021,10,07,10,04,374.00
2021,10,07,10,05,309.00
2021,10,07,10,06,300.20
2021,10,07,10,07,312.10
2021,10,07,10,08,365.00
2021,10,07,10,09,367.10
2021,10,07,10,10,316.50
2021,10,07,10,11,306.00
2021,10,07,10,12,194.70
2021,10,07,10,13,145.30
2021,10,07,10,14,162.90
2021,10,07,10,15,194.20
2021,10,07,10,16,269.00
2021,10,07,10,17,297.20
2021,10,07,10,18,300.10
2021,10,07,10,19,375.10
2021,10,07,10,20,397.40
2021,10,07,10,21,397.00
2021,10,07,10,22,385.00
2021,10,07,10,23,318.40
2021,10,07,10,24,294.00
2021,10,07,10,25,208.30
2021,10,07,10,26,144.00
2021,10,07,10,27,144.00
2021,10,07,10,28,395.20
2021,10,07,10,29,424.00
2021,10,07,10,30,366.80
2021,10,07,10,31,246.00
2021,10,07,10,32,312.80
2021,10,07,10,33,396.30
2021,10,07,10,34,408.00
2021,10,07,10,35,408.00
2021,10,07,10,36,361.20
2021,10,07,10,37,153.40
2021,10,07,10,38,173.50
2021,10,07,10,39,173.30
2021,10,07,10,40,158.10
2021,10,07,10,41,143.10
2021,10,07,10,42,131.80
2021,10,07,10,43,125.00
2021,10,07,10,44,133.30
2021,10,07,10,45,153.20
2021,10,07,10,46,158.00
2021,10,07,10,47,167.50
2021,10,07,10,48,177.80
2021,10,07,10,49,178.90
2021,10,07,10,50,195.90
2021,10,07,10,51,206.20
2021,10,07,10,52,157.40
2021,10,07,10,53,134.90
2021,10,07,10,54,128.00
2021,10,07,10,55,129.60
2021,10,07,10,56,129.40
2021,10,07,10,57,120.00
2021,10,07,10,58,118.90
2021,10,07,10,59,126.30
2021,10,07,11,00,132.10
2021,10,07,11,01,141.30
2021,10,07,11,02,148.00
2021,10,07,11,03,148.20
2021,10,07,11,04,153.10
2021,10,07,11,05,165.60
2021,10,07,11,06,171.00
2021,10,07,11,07,196.70
2021,10,07,11,08,226.90
2021,10,07,11,09,232.00
2021,10,07,11,10,254.70
2021,10,07,11,11,561.00
2021,10,07,11,12,561.00
2021,10,07,11,13,561.00
2021,10,07,11,14,369.00
2021,10,07,11,15,291.90
2021,10,07,11,16,268.60
2021,10,07,11,17,235.70
2021,10,07,11,18,195.80
2021,10,07,11,19,180.10
2021,10,07,11,20,181.70
2021,10,07,11,21,228.30
2021,10,07,11,22,260.00
2021,10,07,11,23,260.00
2021,10,07,11,24,598.50
2021,10,07,11,25,551.20
2021,10,07,11,26,506.00
2021,10,07,11,27,506.00
2021,10,07,11,28,578.60
2021,10,07,11,29,636.40
2021,10,07,11,30,638.00
2021,10,07,11,31,540.50
2021,10,07,11,32,485.10
2021,10,07,11,33,252.10
2021,10,07,11,34,213.30
2021,10,07,11,35,199.60
2021,10,07,11,36,200.00
2021,10,07,11,37,200.00
2021,10,07,11,38,282.60
2021,10,07,11,39,285.00
2021,10,07,11,40,358.80
2021,10,07,11,41,388.00
2021,10,07,11,42,326.90
2021,10,07,11,43,302.70
2021,10,07,11,44,255.10
2021,10,07,11,45,243.00
2021,10,07,11,46,236.90
2021,10,07,11,47,201.10
2021,10,07,11,48,178.10
2021,10,07,11,49,171.90
2021,10,07,11,50,174.00
2021,10,07,11,51,174.00
2021,10,07,11,52,174.00
2021,10,07,11,53,174.00
2021,10,07,11,54,196.20
2021,10,07,11,55,245.10
2021,10,07,11,56,253.10
2021,10,07,11,57,263.90
2021,10,07,11,58,278.50
2021,10,07,11,59,291.40
2021,10,07,12,00,295.90
2021,10,07,12,01,304.10
2021,10,07,12,02,315.00
2021,10,07,12,03,315.00
2021,10,07,12,04,315.00
2021,10,07,12,05,595.90
2021,10,07,12,06,632.10
2021,10,07,12,07,613.70
2021,10,07,12,08,587.00
2021,10,07,12,09,587.00
2021,10,07,12,10,391.10
2021,10,07,12,11,210.60
2021,10,07,12,12,180.60
2021,10,07,12,13,178.60
2021,10,07,12,14,191.00
2021,10,07,12,15,210.00
2021,10,07,12,16,237.30
2021,10,07,12,17,259.70
2021,10,07,12,18,257.00
2021,10,07,12,19,245.60
2021,10,07,12,20,225.80
2021,10,07,12,21,218.00
2021,10,07,12,22,219.00
2021,10,07,12,23,219.70
2021,10,07,12,24,219.10
2021,10,07,12,25,220.70
2021,10,07,12,26,262.90
2021,10,07,12,27,272.00
2021,10,07,12,28,348.10
2021,10,07,12,29,700.20
2021,10,07,12,30,702.80
2021,10,07,12,31,700.00
2021,10,07,12,32,714.20
2021,10,07,12,33,721.00
2021,10,07,12,34,720.10
2021,10,07,12,35,705.00
2021,10,07,12,36,691.00
2021,10,07,12,37,540.40
2021,10,07,12,38,355.00
2021,10,07,12,39,355.00
2021,10,07,12,40,355.00
2021,10,07,12,41,355.00
2021,10,07,12,42,355.00
2021,10,07,12,43,355.00
2021,10,07,12,44,352.90
2021,10,07,12,45,350.00
2021,10,07,12,46,350.00
2021,10,07,12,47,276.10
2021,10,07,12,48,259.50
2021,10,07,12,49,281.60
2021,10,07,12,50,252.90
2021,10,07,12,51,267.80
2021,10,07,12,52,273.00
2021,10,07,12,53,251.40
2021,10,07,12,54,251.40
2021,10,07,12,55,259.80
2021,10,07,12,56,265.30
2021,10,07,12,57,264.80
2021,10,07,12,58,248.70
2021,10,07,12,59,244.30
2021,10,07,13,00,243.70
2021,10,07,13,01,255.50
2021,10,07,13,02,258.00
2021,10,07,13,03,258.00
2021,10,07,13,04,258.00
2021,10,07,13,05,258.00
2021,10,07,13,06,346.60
2021,10,07,13,07,381.80
2021,10,07,13,08,367.00
2021,10,07,13,09,621.00
2021,10,07,13,10,550.60
2021,10,07,13,11,503.00
2021,10,07,13,12,503.00
2021,10,07,13,13,503.00
2021,10,07,13,14,503.00
2021,10,07,13,15,280.40
2021,10,07,13,16,238.80
2021,10,07,13,17,239.00
2021,10,07,13,18,229.70
2021,10,07,13,19,204.80
2021,10,07,13,20,197.10
2021,10,07,13,21,196.40
2021,10,07,13,22,205.20
2021,10,07,13,23,225.00
2021,10,07,13,24,209.00
2021,10,07,13,25,206.20
2021,10,07,13,26,197.70
2021,10,07,13,27,193.30
2021,10,07,13,28,192.70
2021,10,07,13,29,193.00
2021,10,07,13,30,192.40
2021,10,07,13,31,203.60
2021,10,07,13,32,229.00
2021,10,07,13,33,229.00
2021,10,07,13,34,270.70
2021,10,07,13,35,346.80
2021,10,07,13,36,367.00
2021,10,07,13,37,556.20
2021,10,07,13,38,556.90
2021,10,07,13,39,570.00
2021,10,07,13,40,452.10
2021,10,07,13,41,277.90
2021,10,07,13,42,264.00
2021,10,07,13,43,264.00
2021,10,07,13,44,214.00
2021,10,07,13,45,245.90
2021,10,07,13,46,228.00
2021,10,07,13,47,239.90
2021,10,07,13,48,253.00
2021,10,07,13,49,253.00
2021,10,07,13,50,313.80
2021,10,07,13,51,345.90
2021,10,07,13,52,601.00
2021,10,07,13,53,508.40
2021,10,07,13,54,315.10
2021,10,07,13,55,318.00
2021,10,07,13,56,318.00
2021,10,07,13,57,241.60
2021,10,07,13,58,225.00
2021,10,07,13,59,228.00
2021,10,07,14,00,239.00
2021,10,07,14,01,340.60
2021,10,07,14,02,528.40
2021,10,07,14,03,568.90
2021,10,07,14,04,566.40
2021,10,07,14,05,567.70
2021,10,07,14,06,563.70
2021,10,07,14,07,554.00
2021,10,07,14,08,549.00
2021,10,07,14,09,539.90
2021,10,07,14,10,526.30
2021,10,07,14,11,513.80
2021,10,07,14,12,488.00
2021,10,07,14,13,476.40
2021,10,07,14,14,474.80
2021,10,07,14,15,463.80
2021,10,07,14,16,461.90
2021,10,07,14,17,468.80
2021,10,07,14,18,471.00
2021,10,07,14,19,471.80
2021,10,07,14,20,478.10
2021,10,07,14,21,463.40
2021,10,07,14,22,462.00
2021,10,07,14,23,470.00
2021,10,07,14,24,474.00
2021,10,07,14,25,460.30
2021,10,07,14,26,491.20
2021,10,07,14,27,503.50
2021,10,07,14,28,522.40
2021,10,07,14,29,519.40
2021,10,07,14,30,516.10
2021,10,07,14,31,484.40
2021,10,07,14,32,404.80
2021,10,07,14,33,333.70
2021,10,07,14,34,333.00
2021,10,07,14,35,314.00
2021,10,07,14,36,297.00
2021,10,07,14,37,291.10
2021,10,07,14,38,275.60
2021,10,07,14,39,256.20
2021,10,07,14,40,239.90
2021,10,07,14,41,238.60
2021,10,07,14,42,243.80
2021,10,07,14,43,237.70
2021,10,07,14,44,232.70
2021,10,07,14,45,234.30
2021,10,07,14,46,231.10
2021,10,07,14,47,221.30
2021,10,07,14,48,215.40
2021,10,07,14,49,212.40
2021,10,07,14,50,211.90
2021,10,07,14,51,213.00
2021,10,07,14,52,213.00
2021,10,07,14,53,211.40
2021,10,07,14,54,211.20
2021,10,07,14,55,213.80
2021,10,07,14,56,214.00
2021,10,07,14,57,216.00
2021,10,07,14,58,222.30
2021,10,07,14,59,227.00
2021,10,07,15,00,225.40
2021,10,07,15,01,229.80
2021,10,07,15,02,244.80
2021,10,07,15,03,245.80
2021,10,07,15,04,242.30
2021,10,07,15,05,247.30
2021,10,07,15,06,260.00
2021,10,07,15,07,262.40
2021,10,07,15,08,267.10
2021,10,07,15,09,276.30
2021,10,07,15,10,284.10
2021,10,07,15,11,278.40
2021,10,07,15,12,281.30
2021,10,07,15,13,317.60
2021,10,07,15,14,288.50
2021,10,07,15,15,276.00
2021,10,07,15,16,288.80
2021,10,07,15,17,341.20
2021,10,07,15,18,292.80
2021,10,07,15,19,272.30
2021,10,07,15,20,276.70
2021,10,07,15,21,270.80
2021,10,07,15,22,260.30
2021,10,07,15,23,254.10
2021,10,07,15,24,249.40
2021,10,07,15,25,243.80
2021,10,07,15,26,239.90
2021,10,07,15,27,237.60
2021,10,07,15,28,232.90
2021,10,07,15,29,228.90
2021,10,07,15,30,223.90
2021,10,07,15,31,218.10
2021,10,07,15,32,211.90
2021,10,07,15,33,206.10
2021,10,07,15,34,200.40
2021,10,07,15,35,195.70
2021,10,07,15,36,192.10
2021,10,07,15,37,189.00
2021,10,07,15,38,183.70
2021,10,07,15,39,180.10
2021,10,07,15,40,178.40
2021,10,07,15,41,176.60
2021,10,07,15,42,174.40
2021,10,07,15,43,174.10
2021,10,07,15,44,176.00
2021,10,07,15,45,176.60
2021,10,07,15,46,178.00
2021,10,07,15,47,179.70
2021,10,07,15,48,182.40
2021,10,07,15,49,184.70
2021,10,07,15,50,188.50
2021,10,07,15,51,197.40
2021,10,07,15,52,198.40
2021,10,07,15,53,197.90
2021,10,07,15,54,199.60
2021,10,07,15,55,201.40
2021,10,07,15,56,209.40
2021,10,07,15,57,220.30
2021,10,07,15,58,219.30
2021,10,07,15,59,216.20
2021,10,07,16,00,224.70
2021,10,07,16,01,225.90
2021,10,07,16,02,226.40
2021,10,07,16,03,229.50
2021,10,07,16,04,232.00
2021,10,07,16,05,234.50
2021,10,07,16,06,230.50
2021,10,07,16,07,227.60
2021,10,07,16,08,242.70
2021,10,07,16,09,232.50
2021,10,07,16,10,212.20
2021,10,07,16,11,210.60
2021,10,07,16,12,233.10
2021,10,07,16,13,236.00
2021,10,07,16,14,230.90
2021,10,07,16,15,220.70
2021,10,07,16,16,209.20
2021,10,07,16,17,200.20
2021,10,07,16,18,194.80
2021,10,07,16,19,189.30
2021,10,07,16,20,185.00
2021,10,07,16,21,182.10
2021,10,07,16,22,179.90
2021,10,07,16,23,176.90
2021,10,07,16,24,174.40
2021,10,07,16,25,172.00
2021,10,07,16,26,170.60
2021,10,07,16,27,168.40
2021,10,07,16,28,166.10
2021,10,07,16,29,163.90
2021,10,07,16,30,162.30
2021,10,07,16,31,160.40
2021,10,07,16,32,158.10
2021,10,07,16,33,157.60
2021,10,07,16,34,156.00
2021,10,07,16,35,156.00
2021,10,07,16,36,155.40
2021,10,07,16,37,155.00
2021,10,07,16,38,153.40
2021,10,07,16,39,153.00
2021,10,07,16,40,152.60
2021,10,07,16,41,151.00
2021,10,07,16,42,151.90
2021,10,07,16,43,151.90
2021,10,07,16,44,149.60
2021,10,07,16,45,146.50
2021,10,07,16,46,144.10
2021,10,07,16,47,144.00
2021,10,07,16,48,143.40
2021,10,07,16,49,142.00
2021,10,07,16,50,146.00
2021,10,07,16,51,149.00
2021,10,07,16,52,146.50
2021,10,07,16,53,149.00
2021,10,07,16,54,151.80
2021,10,07,16,55,155.00
2021,10,07,16,56,154.10
2021,10,07,16,57,151.90
2021,10,07,16,58,149.60
2021,10,07,16,59,146.50
2021,10,07,17,00,145.90
2021,10,07,17,01,143.60
2021,10,07,17,02,142.00
2021,10,07,17,03,141.50
2021,10,07,17,04,138.70
2021,10,07,17,05,135.60
2021,10,07,17,06,134.20
2021,10,07,17,07,131.70
2021,10,07,17,08,126.20
2021,10,07,17,09,122.00
2021,10,07,17,10,118.10
2021,10,07,17,11,114.30
2021,10,07,17,12,108.90
2021,10,07,17,13,105.40
2021,10,07,17,14,101.90
2021,10,07,17,15,97.50
2021,10,07,17,16,93.80
2021,10,07,17,17,90.50